Temperature
5 3 2 2 2 1 1 0 -0 -1 -1 -1 -2 -2 -3 -4 -5 -6 -7 -8 -9 -9 -10 -11 -11 -11 -11 -11 -11 -11 -11 -11 -11 -11 -10 -10 -8 -7 -6 -5 -5 -4 -4
5 3 2 2 1 1 1 0 -1 -2 -2 -2 -2 -3 -4 -5 -6 -7 -8 -9 -9 -10 -11 -11 -11 -11 -12 -12 -12 -12 -12 -12 -11 -12 -11 -10 -9 -6 -6 -7 -6 -5 -5
5 3 2 2 1 1 1 -0 -1 -2 -2 -2 -3 -4 -5 -6 -7 -7 -8 -9 -10 -10 -11 -11 -12 -12 -12 -12 -12 -12 -12 -12 -12 -12 -12 -12 -10 -10 -9 -7 -6 -6 -6
5 4 2 1 1 1 1 -0 -1 -2 -2 -3 -4 -5 -5 -7 -7 -8 -9 -10 -10 -11 -11 -11 -12 -12 -12 -12 -12 -12 -12 -12 -12 -12 -12 -12 -12 -12 -10 -9 -8 -7 -7
5 3 2 2 1 1 0 -1 -2 -2 -3 -3 -4 -5 -6 -7 -8 -9 -9 -10 -10 -11 -11 -11 -11 -12 -12 -12 -12 -12 -12 -12 -13 -13 -12 -12 -12 -12 -11 -10 -9 -8 -7
4 2 2 2 2 1 -0 -1 -2 -2 -3 -3 -4 -5 -6 -7 -8 -9 -10 -10 -11 -11 -11 -11 -11 -11 -11 -12 -12 -12 -12 -12 -12 -13 -13 -12 -12 -12 -11 -10 -9 -8 -8
3 2 2 2 1 1 -0 -1 -2 -3 -3 -4 -5 -6 -7 -8 -9 -10 -10 -11 -11 -11 -11 -11 -11 -11 -11 -11 -11 -11 -12 -12 -12 -12 -12 -12 -12 -12 -11 -11 -10 -9 -8
3 2 2 1 1 0 -1 -1 -2 -3 -3 -4 -5 -6 -7 -8 -9 -10 -11 -11 -11 -11 -11 -11 -11 -11 -11 -11 -11 -11 -11 -11 -11 -12 -12 -12 -12 -11 -11 -11 -10 -9 -8
2 2 1 1 1 0 -1 -1 -2 -3 -3 -4 -5 -6 -7 -8 -9 -10 -11 -11 -11 -12 -11 -11 -11 -11 -11 -11 -11 -11 -11 -11 -11 -11 -11 -11 -11 -11 -10 -10 -10 -9 -8
2 1 1 1 1 0 -1 -1 -2 -3 -4 -4 -5 -6 -7 -8 -9 -10 -11 -11 -11 -12 -12 -11 -11 -11 -11 -11 -11 -11 -11 -11 -10 -10 -10 -10 -10 -10 -10 -10 -9 -9 -9
3 2 2 1 1 -0 -1 -2 -2 -3 -4 -5 -5 -6 -7 -8 -9 -10 -10 -11 -11 -12 -12 -12 -12 -11 -11 -11 -11 -11 -11 -11 -11 -11 -10 -10 -10 -10 -10 -9 -9 -9 -9
3 2 2 1 1 -0 -1 -2 -3 -3 -4 -5 -5 -6 -7 -8 -9 -9 -10 -11 -11 -12 -12 -12 -12 -11 -11 -11 -11 -11 -11 -11 -11 -11 -11 -11 -10 -10 -10 -10 -9 -9 -9
2 2 2 1 0 -1 -1 -2 -3 -3 -4 -5 -5 -6 -7 -8 -9 -9 -10 -11 -11 -12 -12 -12 -12 -12 -11 -11 -12 -12 -11 -12 -12 -12 -12 -12 -11 -11 -10 -10 -10 -10 -9
2 2 2 1 0 -1 -2 -2 -3 -3 -4 -5 -5 -6 -7 -8 -8 -9 -9 -10 -11 -12 -12 -12 -12 -12 -11 -11 -11 -12 -11 -12 -12 -12 -12 -12 -12 -11 -10 -10 -10 -10 -10
2 2 2 1 0 -1 -1 -2 -3 -3 -4 -5 -5 -6 -7 -7 -8 -8 -9 -10 -11 -11 -12 -12 -12 -12 -11 -11 -11 -11 -12 -12 -12 -12 -12 -12 -12 -11 -11 -11 -11 -11 -11
3 3 2 1 0 -1 -1 -2 -3 -3 -4 -5 -5 -6 -7 -7 -8 -8 -9 -9 -10 -11 -11 -11 -11 -11 -11 -11 -11 -11 -12 -12 -12 -13 -13 -12 -12 -12 -11 -11 -11 -11 -11
4 4 3 2 0 -1 -1 -2 -3 -3 -4 -5 -5 -6 -7 -7 -8 -8 -9 -9 -10 -10 -11 -11 -11 -12 -11 -11 -11 -11 -11 -12 -12 -13 -13 -13 -12 -12 -11 -12 -12 -12 -11
6 4 3 1 0 -1 -1 -2 -3 -3 -4 -5 -5 -6 -6 -7 -8 -8 -8 -9 -9 -10 -10 -11 -11 -11 -11 -11 -11 -11 -11 -11 -12 -13 -13 -13 -12 -12 -11 -12 -12 -12 -11
6 5 3 1 0 -1 -1 -2 -2 -3 -4 -5 -5 -6 -6 -7 -7 -8 -8 -9 -9 -9 -10 -11 -11 -11 -11 -10 -11 -10 -11 -11 -12 -12 -13 -13 -12 -12 -12 -12 -12 -12 -11
5 4 2 1 0 -1 -2 -2 -2 -3 -4 -4 -5 -6 -6 -7 -7 -7 -8 -8 -9 -9 -10 -10 -10 -10 -10 -10 -10 -10 -10 -11 -12 -12 -12 -13 -12 -12 -12 -13 -13 -12 -12
5 3 2 1 0 -1 -1 -2 -2 -3 -4 -4 -5 -6 -6 -7 -7 -7 -8 -8 -8 -9 -9 -10 -10 -10 -10 -10 -10 -10 -11 -11 -12 -12 -13 -13 -13 -13 -13 -13 -13 -13 -12
5 3 2 1 -0 -1 -1 -2 -2 -3 -4 -4 -5 -6 -6 -6 -7 -7 -7 -7 -8 -8 -10 -10 -10 -10 -10 -10 -10 -10 -11 -11 -12 -13 -13 -13 -13 -13 -13 -13 -13 -13 -12
5 3 2 1 -0 -1 -1 -2 -2 -3 -4 -4 -5 -5 -6 -6 -6 -6 -6 -7 -7 -8 -10 -10 -10 -10 -10 -9 -10 -10 -11 -11 -12 -13 -13 -13 -13 -13 -13 -14 -13 -13 -13
5 3 2 1 0 -0 -1 -2 -2 -3 -3 -4 -5 -5 -5 -6 -6 -6 -6 -6 -6 -8 -10 -10 -11 -10 -10 -10 -10 -10 -10 -11 -12 -12 -13 -13 -13 -13 -13 -13 -13 -13 -13
5 3 2 1 1 -0 -1 -2 -2 -3 -3 -4 -5 -5 -5 -5 -5 -5 -5 -6 -6 -7 -9 -10 -11 -11 -10 -10 -10 -10 -11 -11 -12 -12 -12 -13 -13 -13 -13 -13 -13 -13 -13
6 4 3 2 1 -0 -1 -2 -2 -3 -3 -4 -4 -5 -5 -5 -5 -5 -5 -5 -6 -6 -7 -8 -10 -11 -11 -11 -10 -10 -11 -11 -11 -11 -12 -12 -13 -13 -13 -13 -13 -14 -13
Wind_Speed
14 12 12 10 7 4 2 4 6 8 9 8 8 9 10 9 10 11 14 15 17 18 17 16 17 17 14 16 17 17 18 17 16 17 18 18 18 16 12 9 10 11 11
14 13 13 11 8 4 1 3 5 7 8 8 8 8 10 9 10 11 13 15 17 17 16 17 17 17 15 17 17 17 16 16 15 15 17 14 14 8 8 11 11 11 9
16 15 14 12 8 4 1 3 5 6 8 9 8 9 8 8 8 10 11 15 17 17 17 18 18 19 17 16 18 18 19 16 16 14 11 10 10 14 11 12 10 9 10
16 15 14 12 8 4 1 1 4 6 7 8 8 11 9 10 11 10 11 16 16 17 17 18 19 19 18 17 18 17 17 18 16 14 13 13 14 12 10 10 12 14 14
14 14 13 11 7 5 2 1 3 5 6 8 9 10 10 10 10 11 13 14 15 16 17 18 19 19 17 18 18 18 17 15 15 14 14 14 14 14 14 15 14 13 12
13 13 12 10 7 5 2 1 3 4 6 7 8 10 11 12 13 13 13 12 12 14 17 19 19 19 18 18 18 17 17 15 16 14 13 13 12 12 12 14 15 14 13
13 14 13 11 8 5 3 2 3 4 6 7 8 9 10 12 12 13 13 14 12 13 16 19 19 19 19 20 18 16 15 15 15 14 12 12 13 13 13 13 14 16 14
13 14 13 10 8 6 3 2 3 4 6 7 8 8 9 9 9 12 12 13 12 13 18 20 19 20 20 19 17 14 14 13 13 14 14 12 12 12 12 12 13 14 14
14 14 12 10 8 6 4 2 2 4 6 7 8 8 9 10 11 12 12 11 13 15 18 19 18 19 19 18 17 13 14 13 12 12 13 11 11 11 11 11 11 12 13
14 14 12 10 8 6 4 2 2 4 5 7 7 7 9 10 11 11 12 13 15 16 17 17 17 17 17 17 15 15 15 15 13 11 11 11 10 9 9 9 10 10 12
16 14 12 10 8 6 5 3 2 3 5 6 7 8 9 10 11 10 12 13 14 16 15 16 16 16 16 16 14 15 15 15 14 13 13 13 13 10 9 9 9 9 10
15 14 12 11 9 7 6 4 2 3 5 6 7 8 9 9 10 11 12 13 14 15 15 16 15 15 15 15 14 14 14 14 14 15 14 15 13 15 12 11 12 11 11
14 14 12 11 9 8 6 5 3 3 4 6 7 8 9 10 11 11 12 13 13 14 15 15 15 15 14 15 13 12 12 13 13 14 14 15 15 16 14 14 13 12 12
15 15 13 11 10 8 7 5 4 3 4 5 7 8 9 10 11 11 12 12 13 13 14 15 15 15 14 13 11 9 10 11 13 13 14 14 15 16 17 14 14 13 13
16 16 14 12 11 9 8 6 4 4 4 5 6 7 8 10 10 11 11 12 12 13 14 15 16 15 13 13 11 5 8 10 12 13 14 15 18 21 17 13 14 14 12
17 17 15 13 12 11 9 7 5 4 4 5 6 7 8 9 10 11 11 12 12 13 13 14 15 16 13 20 20 9 8 10 12 13 14 15 16 21 21 19 19 17 14
17 18 16 14 12 11 10 8 6 4 5 5 6 7 8 9 10 11 11 12 12 13 13 14 14 15 17 23 23 15 11 11 12 13 14 13 16 20 15 14 18 17 17
17 17 15 13 12 11 10 8 6 5 5 6 6 7 7 9 10 11 11 12 12 12 12 13 15 15 17 22 24 19 12 10 11 12 14 15 16 17 18 14 14 14 11
16 15 14 14 12 12 10 9 7 6 6 6 7 7 7 9 10 11 12 12 12 12 12 13 14 15 16 21 24 21 11 9 11 11 13 15 16 22 24 17 15 16 13
13 13 13 13 13 12 11 9 8 7 7 6 6 7 8 9 10 11 12 12 11 12 12 13 13 14 15 20 23 22 9 9 10 11 12 15 20 23 23 16 15 16 15
13 14 14 13 13 12 11 10 9 8 7 5 6 8 8 9 10 11 11 11 11 12 12 13 14 14 15 17 20 20 10 8 10 10 11 12 22 22 22 19 15 18 17
15 15 14 13 12 13 12 11 10 8 6 6 7 8 8 8 8 10 11 10 10 11 12 12 13 12 14 15 15 17 15 12 10 10 10 13 20 20 20 18 21 22 18
16 15 14 14 12 13 13 12 9 8 7 6 7 7 8 8 8 9 10 9 8 9 10 11 11 12 12 13 14 14 15 14 9 8 13 15 18 17 15 19 22 18 13
16 16 16 15 14 14 13 11 9 8 7 6 6 6 7 7 7 7 7 7 7 8 10 10 11 12 12 12 11 10 11 11 9 9 11 13 14 13 15 16 15 13 13
17 16 17 16 16 15 14 12 10 9 8 7 6 6 6 6 7 6 6 7 6 8 10 9 10 11 12 16 20 14 11 10 10 10 8 8 9 10 11 11 12 12 13
18 17 18 17 15 15 14 13 12 11 9 7 6 4 4 5 5 6 6 5 6 10 10 11 12 11 15 19 19 18 16 15 15 10 8 9 9 10 10 11 12 12 13
Wind_Direction
218 201 196 192 194 206 287 340 340 344 344 342 341 337 335 332 331 331 330 329 330 329 326 322 320 318 314 312 309 308 306 305 305 305 305 303 290 276 271 273 280 276 275
213 201 196 195 201 210 283 332 341 342 345 342 333 326 323 321 321 325 327 328 328 325 322 319 317 314 312 309 308 308 305 303 303 305 307 310 307 277 313 299 283 278 288
218 204 197 196 199 204 275 337 337 336 341 339 331 327 323 324 331 333 329 328 325 321 319 317 316 313 312 308 307 306 302 301 301 295 294 298 300 323 297 290 285 294 301
220 206 195 193 191 178 154 320 330 333 341 340 337 337 332 331 332 329 323 323 322 320 319 318 317 314 312 308 307 303 299 297 296 294 287 278 283 288 298 297 300 298 291
213 200 190 182 170 158 164 304 322 330 341 342 339 334 330 328 325 326 324 325 324 322 322 324 322 320 316 312 309 304 299 294 291 290 289 284 281 273 273 286 294 295 293
200 188 174 165 161 161 178 280 313 329 342 342 339 335 331 329 327 329 327 328 325 324 327 329 327 325 321 317 315 308 302 296 290 287 283 281 279 279 278 284 292 295 296
188 178 172 173 174 181 196 257 305 332 344 340 336 333 329 327 327 328 326 327 325 326 328 330 328 327 326 322 319 313 307 300 294 286 282 278 274 274 274 276 284 290 294
189 183 179 177 178 184 199 247 308 335 340 335 332 327 327 325 322 323 322 322 322 323 324 326 326 327 329 328 327 321 316 306 297 289 283 277 274 272 270 272 279 288 294
191 186 179 178 180 185 197 240 307 330 332 328 324 323 328 325 321 321 320 321 321 322 323 325 327 329 331 332 332 330 329 322 310 298 291 284 279 276 272 270 270 277 291
192 187 181 180 181 183 192 219 290 320 321 319 321 319 322 322 319 318 321 322 322 324 324 327 329 331 332 332 331 333 337 336 333 325 314 303 296 292 289 284 281 277 280
192 187 182 179 179 183 196 214 265 303 311 315 317 318 321 320 319 318 320 322 322 324 326 327 328 330 331 331 331 335 336 335 336 337 334 332 325 321 318 312 303 298 292
191 185 180 178 184 192 199 211 247 287 305 309 312 316 318 320 320 321 321 321 323 325 326 327 327 328 329 327 326 331 333 333 333 333 332 331 331 330 328 324 316 310 303
187 183 181 186 191 195 200 207 235 274 295 301 307 312 318 321 321 321 320 321 323 324 326 326 325 325 325 323 319 326 328 332 331 330 330 329 328 329 330 328 324 319 313
190 188 189 190 192 196 199 205 227 259 284 295 302 309 317 321 319 319 319 321 322 324 324 323 322 322 321 319 307 310 323 329 332 331 330 328 325 326 327 329 329 325 317
195 195 194 191 191 194 197 202 219 245 270 287 297 306 313 316 316 317 318 320 321 322 321 321 321 321 322 318 314 295 323 331 334 335 332 327 327 329 330 332 332 329 322
200 198 195 192 192 193 193 197 211 232 259 277 288 296 304 307 310 313 318 320 320 321 320 318 317 319 320 321 332 337 333 336 337 337 334 330 329 330 330 331 333 331 326
200 197 195 193 191 189 187 193 204 219 247 267 280 288 296 303 308 312 316 319 319 317 316 316 317 317 319 323 328 333 333 333 337 337 334 334 333 334 328 335 336 329 326
198 196 192 187 182 178 180 186 196 218 242 261 272 280 290 297 304 310 314 317 317 315 312 314 318 319 319 323 325 328 325 327 334 334 333 334 334 333 345 343 335 329 330
194 189 183 177 172 174 177 184 200 216 236 253 265 276 283 291 299 306 311 317 315 312 311 316 319 320 320 320 321 326 321 326 330 335 336 337 338 341 350 348 339 335 338
181 174 168 166 171 174 175 189 204 215 231 247 264 276 282 287 296 304 311 314 314 312 316 318 321 319 317 319 321 329 328 329 333 339 339 340 346 349 352 351 345 342 343
171 167 166 171 176 173 178 195 206 217 226 243 266 276 282 290 296 302 307 310 312 314 317 320 323 324 327 328 329 337 348 342 339 341 341 343 349 353 353 355 352 349 348
172 171 172 176 174 176 184 199 210 211 212 237 263 276 284 290 291 301 307 311 316 319 321 323 327 332 336 338 339 348 355 354 346 343 343 345 350 353 355 357 357 356 354
177 177 177 176 178 183 192 204 204 196 204 230 257 275 286 290 294 302 309 316 323 324 324 328 331 334 338 343 350 352 351 353 352 342 342 346 351 352 354 357 360 359 356
182 179 181 184 187 189 197 206 194 188 203 228 252 272 284 294 302 305 307 315 322 324 328 334 334 335 342 352 359 1 356 353 351 342 338 344 349 354 356 358 359 359 359
185 183 188 192 192 189 196 199 194 191 204 223 244 264 277 290 300 306 308 311 315 323 330 332 332 336 343 351 359 6 1 359 356 345 341 346 350 354 357 358 360 0 360
185 187 192 194 191 189 194 195 192 193 200 214 232 253 275 291 301 308 310 301 307 325 335 337 338 337 343 348 355 1 1 359 359 354 351 350 349 351 352 354 356 359 1
Height
1600 1599 1598 1598 1597 1596 1594 1591 1588 1584 1580 1576 1572 1568 1563 1557 1551 1546 1540 1534 1528 1522 1516 1510 1505 1499 1493 1487 1481 1476 1470 1464 1458 1451 1443 1436 1431 1427 1424 1422 1421 1419 1419
1595 1594 1594 1594 1594 1593 1591 1588 1585 1581 1577 1573 1569 1564 1558 1553 1548 1542 1537 1531 1525 1519 1513 1507 1502 1496 1489 1483 1478 1472 1466 1460 1455 1450 1442 1433 1428 1422 1420 1417 1416 1415 1413
1589 1589 1589 1590 1591 1590 1588 1585 1581 1578 1574 1570 1566 1561 1556 1551 1546 1540 1534 1528 1522 1516 1510 1504 1498 1492 1486 1479 1474 1468 1462 1455 1451 1447 1442 1436 1427 1423 1417 1415 1412 1410 1408
1584 1585 1586 1587 1587 1586 1585 1582 1578 1575 1571 1567 1563 1558 1553 1548 1543 1536 1530 1525 1519 1513 1507 1501 1495 1489 1483 1476 1469 1463 1457 1451 1445 1441 1438 1434 1429 1425 1416 1412 1409 1406 1403
1579 1581 1582 1583 1583 1583 1581 1578 1575 1572 1569 1565 1560 1555 1550 1545 1539 1533 1528 1522 1517 1511 1505 1499 1492 1486 1479 1472 1465 1458 1452 1447 1441 1437 1433 1429 1426 1422 1417 1410 1405 1402 1399
1574 1576 1577 1579 1580 1579 1578 1575 1572 1569 1566 1562 1558 1553 1548 1542 1536 1531 1525 1519 1513 1508 1502 1496 1490 1483 1476 1469 1462 1454 1448 1442 1437 1432 1428 1424 1421 1417 1414 1408 1402 1397 1394
1570 1571 1573 1575 1576 1576 1574 1572 1570 1567 1564 1560 1555 1550 1545 1539 1534 1528 1522 1516 1510 1505 1499 1493 1487 1480 1474 1466 1459 1452 1445 1438 1433 1428 1423 1420 1416 1413 1410 1406 1400 1395 1390
1566 1567 1569 1571 1572 1572 1570 1569 1567 1564 1561 1557 1552 1547 1542 1536 1531 1525 1520 1514 1508 1502 1496 1490 1484 1478 1472 1465 1458 1450 1443 1436 1430 1424 1420 1415 1411 1408 1405 1402 1398 1392 1387
1562 1563 1565 1567 1568 1568 1567 1565 1564 1561 1558 1553 1549 1544 1539 1534 1528 1523 1517 1511 1506 1500 1494 1488 1482 1476 1470 1463 1457 1450 1443 1436 1429 1423 1417 1412 1408 1404 1401 1397 1395 1392 1385
1557 1559 1560 1562 1563 1563 1563 1561 1560 1558 1554 1550 1546 1541 1536 1531 1525 1520 1515 1509 1503 1497 1491 1485 1480 1474 1468 1462 1456 1450 1443 1436 1429 1423 1417 1412 1407 1402 1398 1394 1391 1388 1384
1551 1553 1556 1558 1559 1559 1558 1558 1556 1554 1551 1547 1543 1538 1533 1528 1523 1517 1512 1506 1500 1495 1489 1483 1477 1471 1465 1460 1454 1448 1441 1435 1429 1423 1417 1412 1407 1402 1397 1392 1388 1384 1380
1547 1549 1551 1553 1554 1554 1554 1554 1553 1551 1548 1544 1540 1536 1531 1525 1520 1515 1509 1503 1498 1492 1486 1480 1475 1469 1463 1457 1452 1446 1440 1433 1427 1421 1416 1410 1405 1400 1395 1390 1385 1381 1376
1542 1544 1546 1548 1550 1550 1550 1550 1549 1547 1544 1541 1537 1533 1528 1523 1518 1512 1506 1500 1495 1489 1484 1478 1472 1466 1460 1455 1450 1444 1438 1432 1426 1419 1414 1408 1404 1398 1393 1388 1383 1378 1373
1536 1539 1541 1544 1545 1546 1546 1546 1545 1543 1540 1537 1534 1530 1525 1520 1515 1510 1504 1498 1492 1487 1481 1475 1469 1463 1458 1452 1447 1442 1436 1430 1424 1418 1412 1407 1402 1397 1391 1386 1380 1375 1369
1531 1533 1536 1539 1540 1541 1541 1541 1540 1539 1537 1534 1531 1527 1523 1518 1513 1507 1502 1496 1490 1484 1478 1472 1466 1461 1455 1449 1445 1439 1434 1428 1422 1416 1410 1405 1400 1395 1390 1384 1378 1372 1366
1524 1528 1531 1534 1535 1536 1537 1537 1536 1535 1533 1531 1528 1524 1520 1516 1510 1505 1499 1494 1488 1482 1476 1469 1463 1458 1452 1447 1443 1437 1432 1427 1421 1414 1408 1403 1398 1392 1386 1381 1375 1369 1364
1519 1521 1525 1528 1530 1532 1532 1532 1532 1531 1529 1527 1525 1521 1518 1513 1508 1503 1497 1492 1486 1480 1474 1467 1461 1456 1450 1445 1441 1435 1430 1425 1419 1413 1408 1402 1396 1390 1383 1377 1371 1365 1360
1513 1516 1520 1523 1525 1527 1528 1528 1528 1527 1526 1524 1522 1519 1515 1510 1506 1500 1495 1489 1484 1478 1472 1466 1460 1455 1449 1443 1438 1433 1428 1422 1417 1412 1407 1401 1395 1389 1382 1375 1368 1362 1357
1509 1512 1516 1519 1520 1522 1523 1523 1523 1523 1522 1520 1518 1516 1512 1508 1503 1498 1492 1487 1482 1476 1470 1465 1459 1454 1448 1441 1435 1430 1425 1420 1415 1411 1405 1400 1394 1388 1381 1373 1366 1360 1354
1505 1508 1511 1513 1515 1517 1518 1519 1519 1519 1518 1517 1515 1512 1509 1505 1500 1495 1490 1485 1480 1474 1469 1464 1459 1453 1446 1440 1434 1428 1423 1418 1414 1409 1404 1399 1393 1386 1380 1373 1366 1359 1352
1500 1503 1506 1508 1510 1512 1513 1514 1514 1514 1514 1513 1512 1509 1506 1502 1498 1493 1488 1483 1478 1473 1468 1462 1457 1452 1446 1439 1433 1428 1422 1417 1412 1407 1402 1397 1392 1385 1379 1373 1366 1360 1352
1495 1497 1500 1503 1505 1507 1508 1509 1510 1510 1510 1509 1508 1506 1503 1499 1495 1491 1486 1481 1476 1470 1465 1460 1456 1451 1445 1439 1433 1428 1422 1417 1412 1407 1402 1397 1391 1385 1379 1373 1366 1359 1352
1489 1491 1494 1497 1499 1501 1503 1505 1505 1506 1506 1505 1504 1502 1500 1496 1492 1488 1484 1479 1473 1468 1463 1459 1454 1449 1444 1439 1433 1427 1422 1417 1411 1406 1401 1396 1391 1385 1379 1374 1367 1359 1353
1482 1485 1488 1490 1493 1496 1498 1499 1500 1501 1501 1501 1500 1499 1497 1494 1491 1486 1482 1477 1471 1466 1462 1458 1453 1449 1444 1439 1434 1428 1423 1417 1412 1406 1401 1396 1391 1386 1381 1375 1369 1362 1357
1475 1478 1480 1484 1487 1490 1492 1494 1495 1496 1497 1497 1496 1495 1493 1491 1488 1485 1481 1476 1471 1466 1461 1456 1452 1448 1444 1440 1435 1430 1424 1418 1413 1407 1402 1397 1392 1387 1382 1377 1372 1366 1360
1467 1469 1473 1477 1480 1483 1486 1488 1489 1491 1492 1492 1492 1492 1490 1488 1486 1483 1480 1475 1471 1466 1461 1456 1451 1448 1444 1439 1434 1430 1424 1419 1414 1408 1403 1398 1394 1389 1385 1380 1375 1370 1364